This is the latest recevied weather packets stored in our database for station/object N1ORT. If no packets are shown the sender has not sent any weather packets the latest 1 day(s).
| Time | Temp. | Humidity | Pressure | Rain* | Wind** | Luminosity | Snow |
|---|---|---|---|---|---|---|---|
| 1778068940 | 17.22° C | 79% | 1007.5 hPa | 0 mm | - | 149 W/m² | - |
| 1778068033 | 17.22° C | 79% | 1007.8 hPa | 0 mm | - | 118 W/m² | - |
| 1778066822 | 16.67° C | 80% | 1007.9 hPa | 0 mm | - | 85 W/m² | - |
| 1778066520 | 16.67° C | 80% | 1008 hPa | 0 mm | - | 94 W/m² | - |
| 1778066217 | 16.67° C | 80% | 1007.8 hPa | 0 mm | - | 116 W/m² | - |
| 1778065309 | 16.11° C | 81% | 1008 hPa | 0 mm | - | 121 W/m² | - |
| 1778064401 | 16.11° C | 81% | 1007.9 hPa | 0 mm | - | 30 W/m² | - |
| 1778064098 | 16.11° C | 81% | 1007.8 hPa | 0 mm | - | 31 W/m² | - |
| 1778063492 | 16.11° C | 81% | 1007.7 hPa | 0 mm | - | 42 W/m² | - |
| 1778063190 | 16.11° C | 81% | 1007.8 hPa | 0 mm | - | 45 W/m² | - |
| 1778062887 | 16.11° C | 81% | 1007.8 hPa | 0 mm | - | 45 W/m² | - |
| 1778061979 | 15.56° C | 81% | 1007.7 hPa | 0 mm | - | 15 W/m² | - |
| 1778060165 | 15.56° C | 80% | 1008 hPa | 0 mm | - | 4 W/m² | - |
| 1778059862 | 16.11° C | 80% | 1008 hPa | 0 mm | - | 2 W/m² | - |
| 1778058652 | 16.11° C | 80% | 1007.8 hPa | 0 mm | - | 0 W/m² | - |
| 1778057136 | 16.67° C | 77% | 1007.9 hPa | 0 mm | - | 0 W/m² | - |
| 1778056832 | 16.11° C | 77% | 1007.8 hPa | 0 mm | - | 0 W/m² | - |
| 1778056227 | 16.67° C | 77% | 1007.7 hPa | 0 mm | - | 0 W/m² | - |
| 1778055619 | 16.67° C | 76% | 1007.7 hPa | 0 mm | - | 0 W/m² | - |
| 1778055015 | 16.67° C | 75% | 1007.7 hPa | 0 mm | - | 0 W/m² | - |
| 1778054712 | 16.67° C | 75% | 1007.6 hPa | 0 mm | - | 0 W/m² | - |
| 1778053198 | 16.67° C | 73% | 1007.5 hPa | 0 mm | - | 0 W/m² | - |
| 1778051685 | 17.22° C | 72% | 1007.5 hPa | 0 mm | - | 0 W/m² | - |
| 1778051382 | 17.22° C | 71% | 1007.3 hPa | 0 mm | - | 0 W/m² | - |
| 1778051079 | 17.22° C | 72% | 1007.2 hPa | 0 mm | - | 0 W/m² | - |
* Rain latest hour (hover to see other rain measurements)
** Current wind speed in m/s (hover to see current wind gust speed)